Terminal Aerodrome Forecast
Issued by NWS

Home | Current Version | Previous Version | Text Only | Print | Product List | Glossary On
Versions: 1 2 3 4 5 6 7 8 9 10 11 12 13 14 15 16 17 18 19 20 21 22 23 24
158
FTUS46 KMTR 040916 AAA
TAFSFO
TAF AMD
KSFO 040916Z 0409/0512 28012KT P6SM BKN007 OVC120
     FM041100 25007KT P6SM OVC011
     FM041700 27010KT P6SM VCSH SCT012 BKN080
     FM042100 28013KT P6SM VCSH FEW012 SCT200
     FM050400 28010KT P6SM FEW012 SCT200=

USA.gov is the U.S. government's official web portal to all federal, state and local government web resources and services.